GFSSW_925_spd_144.txt.gz
Wind_Speed
15 15 15 15 16 18 18 19 19 19 19 18 17 15 12 13 12 8 9 8 8 6 6 4 3 3 3 2 2 1 2 5 8 1 3 8 0 6 2 5 3 2 3 9 5
16 17 17 17 17 18 19 19 19 20 20 20 19 15 12 12 13 17 16 13 4 8 7 9 7 8 3 3 4 3 3 6 6 7 4 2 1 7 3 6 8 7 7 10 5
17 19 19 20 20 19 19 19 20 20 20 23 19 14 10 8 9 4 19 15 10 10 8 8 6 5 6 5 5 5 4 8 6 3 5 7 5 5 7 7 8 4 4 7 2
20 20 21 21 22 22 22 21 22 23 23 23 18 12 8 3 4 7 13 11 12 10 10 8 6 6 4 5 7 5 10 10 6 1 4 6 7 8 7 8 2 4 4 1 6
16 18 21 23 24 24 22 22 22 24 25 23 13 10 6 6 11 10 14 13 13 9 11 7 8 7 8 5 7 8 10 13 5 5 7 8 8 10 11 9 6 4 3 6 5
15 16 17 20 24 25 23 24 24 25 24 18 9 6 5 10 3 12 15 15 12 11 10 9 8 7 8 8 7 4 6 9 7 8 10 11 9 9 9 9 8 8 7 8 7
18 18 18 20 23 25 26 25 24 24 20 11 7 4 9 16 3 11 15 15 13 10 8 7 10 5 4 10 7 8 10 10 12 13 10 7 8 15 17 9 8 8 9 9 5
20 22 24 25 25 26 27 27 25 23 13 6 4 5 7 3 17 12 16 16 12 10 6 5 4 8 10 9 7 9 10 10 8 13 4 7 9 15 6 9 7 8 9 9 10
23 24 25 26 27 28 30 28 23 15 7 4 3 7 7 3 11 16 19 17 13 10 7 5 4 8 8 7 8 10 7 9 7 9 5 7 7 11 3 5 7 7 8 8 6
26 28 29 29 28 27 30 25 15 9 4 6 10 6 8 9 10 18 19 18 12 9 7 7 5 6 7 8 7 9 8 8 5 8 7 8 12 10 10 10 10 7 7 6 4
27 30 32 33 32 25 24 13 3 3 8 8 6 8 7 5 2 15 20 18 12 11 12 11 8 11 13 14 15 14 13 9 10 10 5 6 11 14 12 7 7 8 6 2 8
24 28 31 31 29 15 17 8 7 7 12 18 22 22 27 21 8 12 22 14 14 16 14 13 15 14 14 15 10 8 11 11 11 12 1 7 13 14 12 6 5 4 6 7 8
22 25 29 30 17 9 15 11 14 13 7 14 23 16 18 22 18 15 20 19 17 17 17 16 13 15 13 13 10 11 13 12 13 10 6 11 17 14 9 6 8 5 6 8 8
21 25 29 33 4 23 4 17 18 19 6 8 8 6 15 13 11 23 29 18 11 20 16 14 17 20 10 11 11 12 10 9 12 4 4 4 6 11 4 7 8 8 7 9 7
21 26 27 18 14 12 16 23 21 7 7 7 8 2 3 16 5 15 30 21 21 17 12 9 7 7 15 15 11 11 3 5 5 6 9 10 5 5 10 8 10 9 9 9 8
20 24 25 15 17 9 18 23 11 4 9 4 5 6 5 19 13 7 14 16 13 18 18 17 8 4 11 9 8 4 4 6 6 4 5 15 11 6 7 9 12 9 10 10 7
18 20 22 15 7 22 21 11 4 7 3 2 2 5 9 11 18 9 13 21 16 15 21 16 20 6 5 4 3 6 5 2 3 3 5 6 2 6 5 6 11 12 12 9 8
18 19 21 16 15 15 13 4 11 9 13 7 2 5 9 9 16 17 11 17 21 18 5 15 12 20 13 17 7 11 8 5 5 2 3 2 5 4 10 9 9 10 13 10 8
19 20 16 15 11 7 3 9 8 9 11 8 16 16 14 12 8 11 20 17 19 24 14 9 14 7 14 12 16 9 9 9 4 5 3 5 6 1 10 9 8 8 12 10 8
18 18 21 23 17 10 7 20 14 15 18 14 14 10 14 15 16 11 8 12 21 21 22 8 9 2 5 8 13 15 6 3 4 3 5 7 8 5 11 13 12 11 11 10 11
11 5 15 16 18 7 11 11 19 22 22 16 13 17 19 18 16 16 11 9 9 13 19 24 14 1 6 8 12 7 6 7 6 5 3 4 0 6 12 16 16 12 11 13 11
5 7 12 13 9 9 14 20 20 20 20 20 16 18 20 18 19 20 19 17 10 1 15 19 11 14 10 7 15 15 11 14 4 6 5 2 5 4 10 9 14 12 12 13 12
4 7 13 23 8 13 17 23 23 22 21 22 19 16 15 16 16 11 12 8 15 15 8 5 10 8 9 6 3 8 15 16 15 8 6 5 2 3 9 8 10 11 11 12 14
3 4 4 5 13 20 20 22 22 20 21 20 9 14 14 16 17 9 13 10 22 20 23 10 7 16 17 14 7 8 15 20 18 13 12 10 3 6 8 9 8 12 11 12 14
4 5 5 5 7 18 17 15 23 22 19 16 15 14 15 15 17 19 17 18 14 20 10 7 10 20 22 22 15 12 16 21 23 22 14 14 13 11 14 13 12 11 12 13 15
5 3 4 8 16 15 17 22 26 22 18 17 17 16 13 11 14 14 12 12 4 11 10 7 10 15 17 19 23 20 16 20 23 24 22 8 8 5 12 9 11 14 15 15 15
16 22 6 11 12 9 17 22 24 21 19 18 14 11 13 14 12 7 7 6 8 6 7 5 7 12 19 18 16 18 21 15 13 21 18 18 16 6 11 15 14 15 16 16 15

GFSSW_925_spd_147.txt.gz
Wind_Speed
18 18 18 18 18 18 19 19 19 19 19 20 20 19 15 15 14 8 6 8 9 6 6 3 4 6 4 0 1 2 3 3 3 4 2 2 3 1 5 1 2 2 5 8 11
19 19 19 20 20 20 19 19 20 20 21 21 23 18 16 13 14 12 14 9 8 12 9 8 3 3 2 3 1 3 3 3 1 1 2 2 4 3 2 2 3 4 8 13 11
18 19 20 21 22 22 19 19 20 20 21 22 22 18 12 11 4 6 4 20 12 9 9 8 7 4 2 2 3 4 4 3 5 2 4 5 4 1 2 4 3 0 5 3 8
17 18 20 21 23 24 24 22 22 22 22 22 20 13 10 3 2 2 5 18 14 13 8 7 4 3 2 3 6 2 8 6 7 3 2 3 4 6 3 8 8 8 6 4 4
20 21 21 22 24 25 25 25 25 23 23 22 16 10 3 2 8 11 14 16 15 14 11 5 5 4 4 4 4 6 6 7 8 7 6 4 6 5 8 9 5 7 7 5 2
21 22 24 25 26 27 27 27 26 26 25 20 11 6 1 4 7 13 17 17 14 13 11 7 5 6 5 4 3 4 3 5 5 6 6 7 7 4 7 9 7 9 8 7 6
22 23 25 26 28 28 28 27 27 27 25 15 7 2 3 13 3 14 18 20 17 13 5 11 10 3 2 6 6 4 6 7 9 7 7 7 6 9 12 8 10 9 9 9 9
24 27 29 30 30 30 30 27 26 24 20 8 5 3 7 9 8 13 17 13 13 14 13 3 3 1 3 4 7 5 4 1 7 7 7 9 9 9 10 10 11 10 8 8 9
26 29 31 32 32 33 30 26 28 17 6 4 2 3 8 6 11 20 23 17 18 13 10 4 2 4 3 3 4 3 4 7 8 7 6 7 7 9 5 5 8 9 9 7 6
28 31 33 34 31 30 26 27 12 7 2 1 6 3 7 6 9 20 25 22 7 6 3 1 1 2 2 3 5 5 4 6 5 4 4 5 11 9 9 7 10 9 8 3 10
27 28 31 34 31 21 28 8 7 4 6 6 6 5 7 10 4 14 21 18 6 5 7 5 3 8 11 9 8 8 6 7 6 4 6 11 10 11 10 7 9 9 8 8 8
24 27 32 35 24 13 21 5 8 8 12 14 22 20 34 15 5 8 21 10 7 11 6 4 13 13 11 12 10 10 9 5 5 7 2 5 11 10 10 9 8 10 8 8 6
23 26 32 35 11 15 14 14 18 22 5 12 10 9 12 17 14 9 13 8 8 8 10 12 12 13 15 14 11 8 4 4 7 7 4 5 9 8 5 4 10 9 9 8 8
24 27 32 30 5 25 3 28 25 18 4 7 6 6 6 6 6 23 19 13 7 16 7 9 16 18 9 10 10 5 7 5 3 2 4 5 6 6 4 5 7 10 9 8 8
23 26 29 20 13 10 20 26 24 1 6 2 5 2 4 10 2 4 27 10 17 8 9 9 5 10 15 17 8 7 4 3 0 2 4 2 2 7 3 6 8 8 10 9 8
23 24 28 23 21 7 25 26 5 1 8 5 2 3 4 7 4 5 9 3 5 8 11 13 10 4 8 4 5 6 4 2 2 3 3 6 9 5 4 9 8 8 11 11 9
20 19 22 20 9 19 23 11 2 5 6 2 2 4 5 4 9 5 2 11 10 13 15 10 17 8 4 4 2 6 7 2 2 1 6 4 5 11 6 10 15 19 14 12 9
21 19 20 20 17 16 15 1 6 4 7 6 7 7 5 7 7 10 8 6 10 6 1 9 10 13 5 10 7 7 8 6 6 4 5 5 5 5 2 4 14 16 15 12 9
22 19 12 12 11 9 1 5 8 7 2 8 12 4 4 7 7 9 11 14 8 16 12 5 7 8 12 6 14 5 8 7 2 2 2 4 6 3 3 8 12 15 15 12 10
17 13 14 22 21 10 3 11 6 3 9 6 3 5 5 6 7 6 7 7 14 12 19 9 16 7 5 6 6 9 6 3 1 3 5 6 5 6 8 11 13 15 14 12 11
9 4 8 10 6 4 8 9 11 15 15 3 3 8 9 7 5 5 6 8 10 9 13 16 13 5 3 4 11 5 6 3 5 5 5 3 5 5 18 17 17 13 13 14 12
3 3 3 9 1 4 14 5 8 20 17 13 5 9 10 13 11 7 6 3 9 5 5 7 12 17 18 6 7 14 18 15 5 5 5 3 6 3 10 16 15 13 13 14 13
3 4 12 10 6 6 7 20 24 21 19 11 12 11 13 7 5 7 6 2 7 7 8 10 5 12 1 4 4 6 5 11 9 2 6 5 5 3 8 12 13 15 14 14 13
3 5 3 3 5 10 16 16 12 20 21 18 17 12 3 6 5 5 8 3 7 9 17 14 5 11 17 10 7 6 11 12 15 13 8 8 4 2 6 11 11 14 17 16 15
3 5 4 4 5 10 12 15 20 15 20 18 15 16 14 7 6 9 3 6 2 9 3 2 6 10 15 11 9 10 14 23 23 20 12 17 17 10 10 12 17 13 16 17 16
5 3 3 4 3 12 11 12 17 15 16 12 16 16 11 8 7 5 5 4 3 3 3 2 5 10 11 12 9 15 14 10 18 21 20 17 10 12 14 8 10 17 18 18 17
7 16 6 8 9 6 12 17 17 16 16 24 24 20 9 10 4 4 5 4 6 6 1 0 5 6 7 13 7 11 23 21 10 18 15 20 22 2 4 17 18 18 19 20 19

GFSSW_925_spd_153.txt.gz
Wind_Speed
15 16 16 17 16 17 17 17 17 17 18 19 20 21 20 17 17 7 7 9 8 10 6 6 3 1 2 1 2 2 3 3 3 3 3 2 1 1 0 4 1 1 7 4 16
16 17 18 19 20 19 19 19 18 18 17 17 18 20 18 16 15 11 14 10 8 14 10 8 3 3 2 0 0 4 3 6 4 2 3 1 2 2 1 1 1 1 2 7 13
18 19 21 22 23 23 23 22 21 20 19 19 19 18 15 12 4 6 5 15 14 15 9 8 4 2 2 1 2 3 5 4 3 1 2 2 2 1 1 4 6 6 6 5 5
18 20 21 22 23 24 23 23 23 22 20 19 20 18 12 4 3 2 4 19 15 16 10 6 3 2 1 3 3 2 7 5 5 3 2 4 2 2 6 7 4 8 11 7 8
20 22 23 24 26 26 25 23 24 22 20 18 19 14 3 2 9 6 3 18 16 18 11 5 4 4 3 3 1 3 5 6 8 8 6 3 7 7 7 9 4 4 6 8 7
22 24 25 28 30 29 28 25 24 22 21 18 17 8 1 4 4 5 8 21 18 19 9 7 7 7 4 3 4 3 4 7 6 7 4 6 6 4 8 6 7 7 10 9 10
24 26 27 30 32 32 27 23 24 22 19 18 12 4 2 14 4 1 12 21 22 22 6 10 6 4 3 2 2 4 6 8 6 5 8 6 7 10 13 4 5 8 10 10 10
22 25 29 33 36 29 24 23 26 20 14 8 5 4 7 6 4 13 16 14 17 16 10 7 6 5 4 1 6 4 2 4 4 2 5 9 9 9 7 7 11 10 9 9 7
23 26 31 35 33 26 25 25 12 6 3 3 4 4 9 6 6 15 18 9 16 12 8 3 3 3 4 4 4 3 4 4 8 4 2 6 6 11 5 9 10 9 9 8 6
24 27 32 37 29 29 27 11 4 4 5 2 1 3 6 3 3 8 18 14 4 4 0 4 3 3 3 4 6 5 4 5 5 3 1 4 11 11 7 7 11 8 7 7 8
24 28 31 34 23 28 24 4 8 5 8 4 7 7 6 8 8 5 19 10 3 4 7 2 3 10 10 7 4 3 2 5 5 9 4 10 12 11 10 7 9 10 8 8 8
23 26 29 31 14 23 29 8 5 6 11 13 18 17 27 10 5 4 18 8 7 8 6 0 13 9 7 5 6 5 4 7 8 8 5 10 14 13 10 9 10 15 10 10 7
22 27 30 32 10 22 8 13 20 12 5 11 4 6 6 13 11 13 9 7 6 9 9 11 4 8 11 6 7 6 6 4 8 6 4 6 10 6 6 5 3 4 6 10 14
20 23 27 32 5 22 4 24 25 2 4 7 4 6 5 5 5 18 20 7 5 15 7 9 12 6 4 6 9 7 7 11 8 2 4 3 7 5 6 6 1 1 6 10 10
19 20 22 21 10 6 17 27 17 2 5 2 2 6 2 5 5 1 11 4 10 6 8 9 8 12 17 21 8 8 6 8 5 4 1 1 2 7 4 6 6 6 6 7 7
17 20 21 15 17 9 24 23 3 4 7 6 0 1 1 3 4 3 6 3 5 5 4 9 3 7 7 7 12 1 5 5 4 2 3 8 8 6 4 5 1 4 5 7 8
16 17 16 16 8 21 22 6 3 3 7 5 4 6 7 3 2 3 4 10 11 10 17 4 9 3 5 4 3 4 6 1 2 1 6 2 2 10 7 6 6 13 10 7 7
15 15 15 16 21 18 9 2 5 4 6 5 6 8 4 7 4 2 6 6 11 3 1 11 7 15 7 19 6 7 7 5 7 4 4 1 6 6 4 6 7 9 11 7 7
15 11 9 8 6 1 3 3 6 5 3 7 9 4 4 3 3 7 4 3 6 13 8 6 7 5 6 16 14 6 5 5 6 2 3 4 7 10 3 5 4 10 13 12 7
9 4 8 13 4 5 4 5 4 5 7 5 2 3 3 7 6 6 3 1 5 6 5 5 10 5 3 4 4 8 8 2 2 3 4 5 4 9 3 3 4 9 13 10 7
2 3 6 10 6 3 3 6 4 5 11 7 5 7 5 4 5 6 5 2 6 6 7 5 3 3 4 8 7 3 4 3 4 5 5 3 5 6 6 8 13 11 12 13 11
2 2 2 13 3 2 3 4 7 10 13 5 6 8 5 5 6 5 6 4 5 2 4 1 1 3 20 3 3 10 12 13 8 5 3 3 6 3 7 6 8 10 11 9 9
2 2 3 4 1 3 5 12 13 13 9 4 7 5 9 4 7 6 7 4 2 3 2 3 1 3 1 1 6 3 3 5 3 4 9 7 6 2 6 5 6 10 9 9 8
3 3 3 3 1 1 5 9 11 9 12 10 11 11 9 12 10 8 12 6 3 4 5 1 3 3 2 2 3 6 15 12 10 9 10 13 8 4 3 3 5 7 8 10 11
2 3 2 2 4 3 4 9 13 7 8 6 4 11 11 6 12 13 13 13 9 5 3 6 5 6 8 11 7 13 16 14 15 14 15 10 14 8 7 7 8 9 9 10 11
3 2 2 5 3 4 6 6 13 19 11 13 13 16 14 14 14 9 12 9 8 3 6 3 4 4 6 8 10 12 20 14 20 21 17 14 15 4 7 5 7 11 14 15 14
6 3 3 5 3 5 10 12 13 10 10 13 17 15 14 15 15 10 11 15 19 8 7 5 4 2 3 4 10 11 24 15 19 15 9 16 17 7 6 6 8 12 16 18 17

GFSSW_925_spd_156.txt.gz
Wind_Speed
16 17 18 18 18 18 18 18 18 18 18 19 19 20 22 20 20 9 7 8 6 11 10 9 5 1 2 2 3 2 3 2 4 4 4 2 2 2 2 4 1 4 5 0 19
17 18 19 19 20 20 20 20 20 19 18 18 19 21 21 19 17 10 12 8 7 16 12 11 4 4 2 1 2 4 3 6 4 3 3 1 1 1 2 1 2 1 2 5 20
17 18 20 22 23 24 23 23 22 20 19 18 18 19 18 15 5 6 2 13 13 16 7 8 10 4 2 2 2 3 5 4 4 5 3 2 2 4 5 4 7 7 5 6 9
19 21 22 23 25 26 26 23 20 21 20 18 17 17 15 6 5 1 4 17 18 16 11 7 3 5 4 4 3 1 7 5 5 3 3 3 2 4 7 9 6 10 6 6 9
20 22 24 26 28 30 28 25 22 21 19 17 14 14 5 2 9 6 1 18 18 19 13 5 4 4 4 4 3 4 5 5 8 9 6 5 8 7 6 10 6 3 7 9 8
20 22 24 27 32 30 25 24 23 24 23 18 14 9 1 4 4 4 8 19 19 20 10 9 7 6 3 3 4 3 4 7 7 8 4 4 5 6 7 4 7 6 9 9 10
21 23 26 30 32 27 26 24 23 26 22 16 12 3 3 14 5 1 9 17 18 21 6 10 8 5 3 2 2 3 6 7 7 4 7 5 8 8 9 4 7 9 9 9 11
22 25 29 32 31 30 26 23 21 14 10 6 3 5 7 4 5 13 10 10 15 15 4 13 9 4 3 2 6 3 2 4 5 3 3 7 9 12 5 8 11 10 9 8 7
22 25 29 32 30 31 31 23 7 6 5 4 4 3 9 6 4 9 14 7 10 11 8 1 5 4 4 5 4 4 4 4 8 2 2 4 7 6 4 5 10 10 10 8 7
23 26 29 31 29 30 28 8 5 4 5 2 2 2 5 2 2 2 12 10 4 4 1 2 3 3 3 4 6 5 4 4 6 2 1 4 12 12 12 7 11 9 7 8 8
22 25 27 30 22 28 26 3 7 4 6 4 3 5 5 12 8 3 8 10 5 4 7 2 2 11 9 7 5 4 3 5 4 7 4 8 10 13 12 5 9 10 9 9 10
21 24 27 30 15 18 30 7 4 4 10 6 14 12 19 12 6 4 10 7 6 7 6 1 12 7 6 6 6 5 3 8 7 8 4 8 18 13 10 11 13 15 13 12 6
21 24 28 30 8 19 14 12 18 2 3 10 5 5 4 8 6 12 8 4 5 7 8 10 5 8 12 5 7 5 6 4 8 5 5 6 9 5 5 5 6 6 6 6 13
18 22 26 24 3 15 3 22 21 6 4 7 4 5 4 4 5 7 16 7 6 14 7 8 10 3 4 7 8 6 8 10 8 2 4 3 7 5 7 9 6 6 4 5 8
18 19 22 18 10 4 15 27 9 4 5 1 1 4 3 3 6 4 4 1 7 6 7 7 6 14 16 9 7 8 6 7 4 4 1 3 3 6 3 7 8 6 3 4 6
16 17 19 14 14 7 24 24 2 4 7 5 1 3 3 2 3 3 1 2 4 5 3 5 3 6 7 10 13 1 3 4 4 3 2 7 7 5 4 4 5 3 3 5 7
15 16 13 14 9 23 19 6 3 3 5 5 4 6 6 4 4 3 5 7 7 6 13 5 9 4 4 6 2 5 4 1 1 1 6 1 1 9 6 7 5 4 7 7 7
14 12 12 7 16 12 7 3 3 2 5 5 7 9 4 6 2 5 2 4 9 3 3 7 7 15 9 19 8 7 8 5 6 4 4 2 5 6 4 3 6 6 8 8 8
10 8 10 11 10 4 4 2 4 3 5 9 9 6 5 6 6 6 3 2 4 4 7 6 7 4 10 17 11 7 7 7 5 1 2 4 6 9 2 4 5 4 11 11 8
5 3 11 8 6 5 4 4 2 4 5 6 3 6 5 9 9 9 4 4 3 7 3 5 6 6 1 6 2 12 8 3 1 4 4 4 3 8 5 7 4 5 8 8 8
2 3 6 8 3 4 2 5 4 3 9 7 4 5 5 5 5 7 6 6 4 6 6 5 3 2 6 7 11 4 5 0 3 5 5 1 5 5 3 8 8 7 7 11 11
3 2 8 7 3 1 2 1 6 8 6 5 4 7 9 8 4 5 7 3 16 6 12 2 3 3 13 3 3 6 7 9 4 4 3 3 6 2 3 6 3 5 5 7 10
3 1 5 4 2 1 5 4 5 7 8 3 6 7 4 5 6 4 4 9 17 7 4 2 1 3 3 2 4 6 5 7 3 2 10 6 4 1 5 4 3 5 5 5 8
3 2 3 4 1 3 1 5 4 4 12 7 8 10 10 11 11 9 9 7 13 13 21 11 3 7 7 3 5 5 10 11 5 1 3 7 8 6 3 2 2 5 7 8 7
3 2 3 2 3 3 2 4 8 7 5 8 5 9 10 4 9 16 14 8 8 15 10 5 7 5 7 9 6 8 14 13 10 6 4 5 9 12 8 5 5 7 7 9 11
4 3 1 3 1 2 3 3 6 10 5 7 9 12 10 12 15 16 12 10 7 8 7 3 10 5 3 8 11 12 15 17 15 12 12 14 12 13 10 2 3 7 8 11 12
2 3 4 4 3 3 4 5 7 7 9 14 14 12 14 21 11 10 8 9 7 7 10 6 5 3 4 3 5 9 15 15 13 8 6 11 7 12 13 7 6 7 10 14 15

GFSSW_925_spd_159.txt.gz
Wind_Speed
16 16 17 18 18 19 19 19 19 18 17 17 17 18 19 22 22 12 7 8 5 11 12 13 7 5 3 2 3 4 2 2 4 5 3 2 1 1 2 4 2 4 4 1 11
17 18 19 20 20 21 22 21 20 19 17 17 17 17 18 20 19 10 10 8 6 17 14 14 5 5 2 2 1 2 3 6 3 2 2 2 1 1 2 0 2 2 2 2 13
18 19 21 22 23 25 25 23 20 18 17 17 15 15 16 15 5 5 2 10 12 18 10 10 11 4 3 2 4 3 4 4 4 5 3 3 3 2 2 4 6 5 6 7 11
19 19 21 23 26 28 25 24 21 19 16 15 14 12 14 6 4 0 7 13 17 18 15 10 3 4 3 4 4 3 6 4 4 1 2 3 3 4 6 8 5 9 2 9 13
18 19 21 24 28 25 26 25 23 20 19 18 15 9 3 2 8 6 5 18 18 17 14 5 5 3 4 3 4 4 4 4 7 7 5 4 9 9 8 10 7 5 5 11 14
19 21 24 26 29 25 25 25 24 22 22 18 14 7 3 3 4 5 4 18 17 18 10 8 6 5 2 2 4 4 4 6 6 7 4 6 7 7 7 9 11 7 9 11 14
20 23 26 29 32 26 28 28 23 20 13 10 7 5 2 12 5 1 9 15 16 19 5 8 7 4 5 2 3 2 5 6 7 3 6 6 9 10 10 5 9 10 10 9 13
22 25 27 29 31 25 28 29 19 12 9 5 4 5 7 3 4 10 9 7 11 14 2 10 5 4 2 4 4 4 1 3 2 4 2 7 8 9 4 8 13 11 11 12 13
22 24 27 30 31 26 28 26 5 6 7 6 3 3 8 3 4 4 10 7 10 10 7 5 5 2 3 3 2 2 5 4 7 2 2 5 5 5 1 3 10 10 12 11 11
23 25 28 32 28 29 29 11 4 4 2 1 1 2 5 1 3 3 7 10 3 6 2 3 3 2 3 4 7 4 5 4 6 0 2 3 14 13 17 9 14 13 11 12 14
21 23 26 28 20 26 29 4 8 4 7 3 2 5 5 11 2 2 2 5 4 3 6 3 4 12 18 6 4 2 3 5 3 4 5 13 15 15 13 9 13 14 14 14 15
17 20 23 24 9 19 31 9 2 5 10 5 8 8 13 7 5 4 9 6 4 5 5 1 14 10 5 7 6 6 11 14 7 7 5 9 17 17 17 14 16 17 15 15 9
18 22 25 24 7 16 18 12 17 6 2 8 4 4 2 7 5 6 9 4 5 7 11 13 5 9 11 6 8 8 11 7 11 4 5 6 8 5 5 4 6 10 9 9 14
15 18 21 18 2 11 4 21 14 9 4 6 4 2 3 2 4 5 9 6 4 11 5 8 8 4 6 9 11 12 10 13 10 6 5 1 6 4 8 9 7 10 7 6 5
13 15 16 12 6 2 10 20 3 3 5 3 1 2 1 1 6 3 3 1 5 6 6 8 6 11 16 14 10 6 4 8 5 5 2 3 4 6 3 6 3 6 3 1 4
12 12 13 8 8 3 17 13 4 4 6 5 3 5 6 5 4 4 2 3 3 5 5 10 4 7 11 9 13 4 1 3 2 1 5 7 7 3 3 3 3 1 0 4 8
10 8 8 8 7 18 13 1 3 3 6 6 4 6 3 4 6 4 1 4 4 3 10 7 15 4 5 5 2 5 3 2 2 3 5 0 2 8 5 8 6 5 2 6 11
9 7 6 9 12 10 5 3 3 1 2 4 7 9 5 10 5 7 4 3 2 4 1 6 7 17 11 16 9 9 6 4 8 7 4 1 5 5 5 5 3 4 4 11 12
4 5 5 12 9 6 4 2 1 5 5 11 8 6 3 7 6 10 6 5 5 14 3 4 6 3 6 15 16 6 9 11 2 1 1 3 5 9 4 5 1 0 8 12 12
2 3 7 11 10 6 4 2 3 5 4 4 3 5 5 10 8 11 4 4 5 11 12 4 8 5 4 4 7 12 8 3 1 6 8 2 3 6 6 9 4 3 8 10 10
4 3 5 5 5 4 3 2 1 5 8 6 3 5 3 5 2 3 6 11 8 13 12 6 1 9 6 5 11 4 9 5 2 7 9 4 4 4 6 6 8 1 8 12 11
4 3 7 6 4 1 3 2 3 3 3 3 4 8 8 6 5 7 7 5 14 11 12 5 4 6 7 5 7 5 10 18 6 6 3 3 6 3 4 5 3 6 8 10 11
3 2 4 4 3 1 1 2 0 1 2 3 4 5 5 4 6 7 5 6 11 7 6 9 3 4 6 4 3 6 7 9 3 3 12 5 4 3 3 4 4 5 9 11 13
2 2 3 3 2 4 3 2 1 4 3 5 4 4 5 6 9 7 9 5 6 12 16 10 5 5 6 9 3 6 8 4 6 5 7 8 7 4 8 10 5 2 7 10 13
2 2 2 3 2 4 4 1 1 3 3 3 4 8 6 5 6 8 6 6 6 14 4 3 10 11 13 14 4 5 12 7 7 5 4 2 8 14 13 10 10 6 7 10 12
4 4 2 3 3 5 2 4 6 3 4 5 7 12 12 12 8 17 15 6 6 2 2 3 4 11 15 14 14 14 16 14 13 16 11 11 16 9 11 3 5 8 5 9 12
3 3 4 5 5 5 5 6 10 6 8 12 13 9 13 18 13 10 9 9 8 8 10 5 3 4 8 9 6 9 15 17 12 11 10 11 12 16 11 8 7 8 8 11 12

GFSSW_925_spd_165.txt.gz
Wind_Speed
17 17 17 18 19 22 21 20 19 18 17 16 16 17 18 20 22 16 16 10 6 12 11 9 8 7 7 5 5 4 6 8 11 7 8 1 7 7 4 8 7 8 6 7 10
17 17 18 19 21 22 22 20 20 20 19 17 16 16 16 18 18 20 12 14 10 14 13 13 10 9 8 7 5 7 8 8 6 7 7 5 8 8 7 13 10 9 6 5 12
17 18 20 22 24 24 23 21 23 22 21 18 16 15 16 16 12 4 0 3 10 17 12 11 7 8 10 7 11 7 12 9 6 8 8 10 10 9 11 13 13 14 13 12 12
17 19 22 24 24 26 23 21 24 24 21 18 16 13 11 8 6 3 4 3 10 15 10 10 9 10 8 10 11 11 14 14 11 7 9 12 13 14 12 15 8 9 8 7 13
18 20 22 23 25 26 24 24 28 25 22 17 14 9 4 7 9 4 6 5 12 14 14 11 11 11 12 8 11 15 16 14 12 12 13 13 16 16 18 15 15 13 11 13 13
17 20 21 23 25 25 24 28 27 25 17 13 10 2 6 10 0 4 1 9 11 16 14 12 9 10 10 11 12 10 9 13 13 14 14 17 18 17 17 15 20 18 17 16 15
18 20 21 23 25 25 25 29 29 19 11 11 9 5 8 13 2 4 2 8 9 14 10 11 11 7 3 11 10 12 16 16 17 17 15 13 17 23 23 19 19 17 17 17 18
19 21 22 24 26 24 26 30 21 9 10 7 2 5 7 2 3 3 5 7 10 13 10 8 8 10 11 12 11 13 15 15 7 1 5 5 16 9 3 12 17 18 16 17 17
20 21 22 24 27 24 26 27 10 7 6 4 3 7 6 1 1 3 6 8 9 10 8 6 7 12 9 12 13 14 14 15 11 12 6 11 13 8 2 6 8 10 13 14 16
20 21 22 25 27 23 26 22 12 7 4 6 8 6 5 3 5 6 3 7 7 9 9 9 7 9 12 12 14 16 14 13 11 6 6 13 18 16 14 13 16 16 16 15 15
19 19 21 23 25 21 25 12 5 6 6 9 12 15 9 9 11 6 4 10 9 12 15 14 12 17 18 18 18 20 20 20 18 16 14 16 18 18 18 20 20 20 19 19 17
18 18 19 19 18 16 12 5 5 6 10 5 8 8 9 5 5 10 6 9 11 15 15 16 18 19 19 17 17 19 20 22 20 19 13 16 19 17 20 23 23 24 21 21 21
17 19 19 18 9 6 9 8 9 3 6 3 2 2 3 3 3 2 4 10 16 14 17 19 12 6 16 19 17 19 20 20 21 18 18 19 23 23 21 18 13 15 17 17 18
17 19 19 16 4 8 2 11 8 2 5 7 3 3 1 4 2 5 4 7 6 10 14 15 16 22 20 18 15 21 16 19 19 15 14 4 14 15 15 18 12 14 10 12 12
15 16 14 9 9 5 5 9 1 3 7 5 5 2 5 4 7 3 3 3 8 10 7 8 8 9 16 21 16 21 14 13 15 16 16 16 11 15 17 13 12 4 2 4 4
15 14 10 4 5 4 9 5 3 5 7 5 4 6 9 3 8 9 4 4 9 13 15 21 20 17 13 15 16 17 9 12 13 12 14 18 16 17 15 14 10 9 6 2 4
12 10 5 4 4 9 7 4 6 6 4 5 3 7 12 8 9 10 12 10 12 13 16 18 19 20 16 16 16 13 12 8 8 11 15 13 7 16 13 2 6 9 11 2 4
7 6 4 2 7 9 6 6 9 2 6 4 4 13 8 9 7 12 13 10 7 9 12 14 24 22 19 20 16 17 18 11 14 12 12 4 8 10 8 4 1 6 3 3 6
5 4 3 3 6 5 5 9 5 6 4 9 14 12 11 3 7 9 7 10 5 11 7 8 17 23 24 21 10 21 18 24 22 23 16 14 15 16 7 7 3 4 4 7 9
7 5 5 4 5 5 5 7 1 4 4 5 5 3 8 11 11 8 7 6 4 6 13 7 16 14 16 21 19 20 18 15 11 8 16 13 15 13 13 8 4 3 4 8 10
3 2 2 3 3 5 6 2 4 4 5 4 3 6 8 13 7 9 7 12 10 8 12 17 9 19 18 15 17 17 15 23 11 15 17 17 15 6 13 5 9 7 5 8 9
4 4 2 2 5 1 4 5 2 4 3 3 3 6 9 10 12 8 12 10 12 13 15 18 17 18 22 24 22 19 9 6 4 18 16 17 13 10 13 14 10 8 5 7 10
4 1 2 0 4 4 4 5 3 5 3 2 2 3 6 8 6 8 7 4 10 8 9 13 9 14 20 18 22 6 4 7 7 2 10 15 16 14 15 13 9 11 4 7 11
3 4 3 3 2 6 9 7 6 2 4 3 3 6 7 10 11 10 14 9 4 9 14 12 13 17 16 20 20 12 6 7 5 4 7 6 15 13 16 13 12 12 5 4 10
4 3 1 4 5 9 10 9 11 7 6 7 5 6 6 6 12 16 16 8 12 16 16 13 18 19 19 21 24 26 24 14 14 8 5 9 21 22 15 11 6 4 10 2 7
4 4 3 4 10 10 8 11 12 10 10 7 8 6 8 14 15 18 19 17 16 15 17 15 17 18 19 22 23 25 29 23 20 18 10 14 20 19 11 14 8 5 6 6 5
3 3 4 9 11 10 10 12 16 11 8 6 6 7 10 14 13 15 16 19 18 17 18 18 15 17 21 22 23 20 22 24 23 23 17 15 18 15 17 14 6 8 6 3 6

GFSSW_925_spd_171.txt.gz
Wind_Speed
19 20 21 22 23 23 24 23 23 23 24 22 20 20 20 20 22 13 5 4 4 9 4 4 5 9 6 2 1 2 3 3 4 3 4 7 6 7 4 2 5 6 4 9 26
19 20 22 23 23 24 24 23 23 24 23 22 22 19 18 20 20 7 6 6 5 7 10 8 5 5 2 3 2 4 3 7 5 3 3 6 6 6 5 8 5 4 6 20 21
19 21 23 24 25 25 26 26 26 26 26 23 20 16 14 14 5 2 1 2 4 7 11 13 9 4 3 2 4 5 5 5 8 5 2 3 7 6 6 5 7 4 5 14 15
20 22 24 25 26 27 27 28 28 30 30 22 15 12 10 3 2 3 1 1 4 10 10 5 3 2 2 4 5 5 8 9 11 7 5 2 2 5 4 9 6 7 5 6 7
20 23 25 26 27 29 29 30 28 29 27 16 12 9 4 1 7 1 3 2 6 11 8 4 5 4 5 5 3 7 9 9 8 9 6 6 7 7 11 11 9 11 6 7 8
20 23 26 28 30 32 32 31 28 29 23 15 12 6 3 3 4 4 1 1 7 12 11 10 5 7 6 6 6 5 6 7 6 9 6 9 7 4 8 6 10 10 11 8 10
20 23 27 29 30 32 33 31 29 26 20 12 10 2 4 10 6 7 4 8 6 9 5 11 12 2 5 6 6 6 6 8 12 9 8 4 7 11 15 6 15 12 11 10 10
19 22 25 26 28 30 31 30 29 25 14 7 6 2 6 4 8 5 4 7 8 9 12 13 7 1 2 4 8 6 4 3 11 5 8 10 10 14 8 6 7 11 10 11 12
19 21 24 26 28 31 31 32 26 13 5 4 1 4 7 4 2 3 2 5 7 6 7 10 4 1 5 1 4 3 4 7 8 8 7 6 5 11 6 6 9 8 7 9 10
18 21 24 25 28 28 30 25 13 5 2 1 8 4 6 4 5 11 6 6 2 4 2 3 1 2 2 3 5 5 5 5 6 6 5 5 7 8 9 8 9 9 9 9 9
18 21 23 24 25 22 28 9 9 4 8 4 8 6 8 13 11 8 8 4 2 1 5 4 3 7 11 8 8 8 13 14 9 6 5 5 8 10 10 7 9 9 9 10 10
18 20 22 23 23 15 16 6 3 4 9 11 12 8 8 0 3 5 12 4 5 6 3 4 9 10 12 11 12 10 9 9 9 5 9 12 20 9 8 9 14 10 10 12 10
18 18 21 22 18 7 13 7 6 1 3 8 3 2 3 0 4 4 3 3 4 4 8 9 9 8 13 13 13 10 6 9 11 4 3 7 19 12 8 9 12 15 18 14 12
17 17 18 20 3 13 4 9 9 1 4 3 2 2 1 2 2 0 2 3 3 6 8 8 11 11 15 9 7 8 7 10 5 4 7 5 10 14 9 14 16 11 9 8 5
17 16 15 13 11 5 5 11 7 1 5 6 3 1 5 2 2 4 2 3 4 6 3 6 8 7 6 5 6 9 4 10 6 5 5 3 2 12 5 8 10 10 4 5 6
18 15 11 4 6 5 11 9 3 3 6 3 3 4 4 5 4 7 5 5 5 4 6 8 6 5 5 9 7 7 5 5 3 3 6 7 6 20 5 9 3 3 5 5 6
19 14 10 6 2 7 7 4 4 3 2 2 3 3 4 3 5 4 4 12 5 6 7 8 3 4 12 5 8 14 4 2 3 2 11 6 7 15 10 9 6 7 6 5 5
19 14 10 11 6 8 1 2 5 7 3 1 2 5 3 5 4 6 4 2 12 5 2 5 6 8 13 11 7 9 4 2 6 3 4 3 6 7 9 8 3 4 7 5 6
18 11 8 9 11 4 2 3 7 4 2 2 4 5 4 6 5 4 5 3 3 4 3 5 5 3 18 9 6 7 5 15 6 6 4 4 7 23 22 20 8 7 6 5 6
17 8 5 10 8 4 2 9 6 2 4 3 3 0 3 2 3 4 2 3 5 7 3 5 7 5 11 11 9 12 11 5 4 5 6 6 6 0 15 18 21 16 11 2 4
12 3 5 13 10 2 6 6 4 1 1 0 3 3 4 2 3 2 2 6 6 5 5 3 4 6 11 7 15 7 5 4 2 5 4 4 2 4 6 11 16 18 11 8 4
8 3 6 14 3 3 4 7 6 6 2 3 2 5 3 2 3 1 2 3 5 4 2 2 2 5 6 8 14 13 12 1 2 5 5 2 2 1 5 11 15 17 20 10 8
4 2 1 1 6 6 4 9 6 7 7 4 2 2 2 4 4 4 2 4 7 3 2 2 1 4 9 5 5 4 6 6 8 4 6 3 2 9 12 15 15 14 17 17 12
4 4 2 3 2 5 10 11 4 3 5 5 8 3 4 3 2 3 2 1 2 5 6 4 5 6 5 7 8 14 11 8 9 8 9 10 16 16 16 12 12 14 17 21 19
0 1 1 5 5 9 13 11 6 4 2 4 2 5 5 3 3 1 2 2 1 5 1 5 5 6 10 10 14 16 18 18 13 12 11 15 15 14 14 8 7 8 12 18 18
1 1 2 2 4 8 9 11 15 5 7 8 4 11 7 6 6 5 2 2 4 3 4 2 4 4 5 8 12 16 18 20 19 16 15 14 17 11 13 5 7 4 12 14 15
4 2 2 4 4 6 4 7 9 13 7 8 9 5 6 5 5 4 3 4 6 5 2 3 1 3 8 7 9 12 15 15 17 16 12 12 14 14 10 10 10 4 7 8 12

GFSSW_925_spd_174.txt.gz
Wind_Speed
18 20 21 22 23 23 24 24 23 24 24 23 21 19 20 20 21 11 5 3 4 8 4 8 5 4 1 0 2 4 3 2 4 4 7 7 7 7 4 2 3 5 6 6 22
18 20 22 23 24 24 24 25 25 25 26 25 21 17 17 18 17 7 3 4 4 12 10 10 5 3 1 1 1 4 3 8 5 1 3 4 2 6 7 8 3 2 2 13 25
18 20 22 23 23 23 24 25 26 24 26 25 19 15 14 13 4 3 1 3 7 12 11 9 5 4 3 3 4 5 5 5 5 5 4 5 5 3 3 7 5 2 4 2 9
18 20 23 24 24 25 26 26 26 24 25 23 17 14 12 5 1 2 1 2 5 11 10 5 3 3 5 4 5 3 8 7 6 7 4 5 4 5 5 10 8 5 4 5 7
18 20 23 24 25 27 28 27 26 24 24 20 15 11 4 2 7 2 1 2 6 12 9 4 5 4 4 3 1 4 5 7 9 9 6 5 6 6 10 10 8 10 8 10 11
18 21 24 26 27 29 29 28 27 26 23 16 12 6 0 3 1 2 1 1 4 9 5 4 4 5 4 5 5 4 4 7 7 8 5 6 7 5 15 5 9 8 12 10 10
19 21 24 27 29 30 31 29 29 29 22 10 7 1 0 10 1 3 4 5 5 7 3 6 3 2 0 5 3 4 6 8 8 5 5 2 5 10 18 4 9 11 15 11 11
20 21 24 26 28 31 32 32 33 22 9 3 3 2 6 3 5 2 3 6 7 10 12 7 5 1 2 2 7 6 1 3 6 3 7 9 7 15 10 5 10 11 9 9 10
19 21 23 26 28 31 32 34 20 9 2 2 2 2 7 5 1 3 5 2 5 6 5 5 1 2 4 3 5 2 5 5 7 4 3 3 5 10 5 6 9 10 9 8 9
19 20 22 25 27 28 29 25 9 5 5 2 0 3 3 3 4 10 9 6 3 2 2 2 4 1 3 4 6 6 4 4 4 6 8 7 9 8 10 6 11 10 9 9 9
18 19 21 22 24 22 26 9 9 4 7 3 5 5 5 11 14 10 9 3 2 2 6 3 3 7 12 8 5 4 4 9 8 8 7 7 9 10 10 10 10 10 11 10 11
16 18 20 22 23 13 12 6 2 4 8 5 11 7 16 5 4 5 5 5 4 5 2 2 5 11 8 6 7 8 9 11 8 8 5 12 19 8 7 9 15 16 12 11 10
17 18 19 20 18 6 10 7 5 2 2 7 5 4 3 5 2 3 2 2 3 3 5 6 6 2 6 9 11 11 7 10 12 5 3 5 15 9 6 7 9 12 11 10 14
17 17 16 20 3 12 3 10 5 1 3 5 4 4 3 3 2 1 2 3 1 4 4 5 6 8 9 6 11 10 10 12 6 4 9 5 10 8 10 12 9 12 10 9 9
19 15 13 13 10 3 7 13 7 1 5 4 2 2 1 2 1 3 3 3 4 3 3 6 7 6 5 2 2 8 6 6 3 4 4 4 2 2 5 17 17 12 5 2 4
19 15 10 6 6 4 9 13 2 4 7 1 2 2 3 4 4 6 7 7 3 2 2 4 5 3 3 2 7 6 3 2 1 1 7 7 6 16 3 4 10 6 2 3 3
19 18 11 7 2 4 9 3 4 4 5 1 1 3 2 3 2 5 4 6 3 4 4 5 3 1 7 5 5 9 6 4 3 2 9 6 6 14 11 11 12 18 8 4 4
22 18 13 14 5 6 2 2 7 4 4 2 1 1 4 1 2 4 6 2 6 4 1 2 4 7 9 4 3 3 2 1 5 4 5 5 6 5 2 10 17 18 17 10 11
20 16 8 16 13 5 2 4 6 5 3 3 1 2 3 1 4 2 3 3 4 5 2 3 3 3 12 10 3 4 3 2 4 8 3 5 6 4 14 19 21 20 19 16 10
21 8 6 12 13 9 2 7 5 2 2 2 5 2 3 2 2 0 3 3 4 3 2 1 4 3 4 3 8 4 4 2 2 4 6 6 5 1 12 14 14 18 19 18 17
12 3 8 17 13 1 4 7 5 4 2 5 5 2 3 3 3 1 3 4 3 2 5 2 3 4 3 3 3 4 3 2 1 3 4 4 2 5 9 12 14 14 15 15 16
9 3 7 18 3 3 6 5 5 4 1 2 2 2 6 7 5 3 3 2 1 3 3 1 3 3 3 7 6 5 4 4 1 5 3 3 3 5 8 7 11 16 15 15 13
5 2 0 5 5 6 4 5 6 6 6 8 7 0 1 4 2 2 5 5 5 2 4 3 2 3 7 4 5 3 3 6 5 5 6 5 3 5 17 13 7 11 12 13 11
4 3 2 2 2 3 7 6 9 5 2 4 3 5 4 3 0 4 3 3 3 3 7 5 3 6 5 5 4 4 4 7 5 5 5 11 17 22 16 15 14 6 12 10 9
2 2 2 5 3 6 3 6 9 7 7 3 1 4 5 5 4 4 3 3 2 1 2 3 5 5 6 9 10 9 13 14 8 12 10 14 16 16 17 17 14 6 5 8 13
2 3 2 2 3 11 8 7 15 12 7 8 6 8 8 6 7 7 7 4 4 3 3 2 2 2 4 4 7 15 18 16 17 19 18 18 21 14 14 12 9 8 6 9 9
4 1 1 5 4 4 5 7 15 12 3 7 13 9 8 5 5 5 4 5 7 7 3 3 2 3 5 2 5 9 10 6 7 11 11 13 18 14 14 16 12 9 7 7 4